User: anonymous   Login
Location: Mt. Chestnut Observatory
(40.9038°N, 79.9956°W)
Time: 15:41:39
(UTC-04:00)
Language:

Cosmos 2034 Rocket - Orbit

View from above orbital plane
View from above orbital plane
View from above satellite
View from above satellite

Ground track
Ground track

The orbit data is extracted from the following two-line orbital elements,

1 20150U 89059B   18109.43557932  .00000023  00000-0  76924-5 0  9994
2 20150  82.9418 226.8829 0029921 145.4156 280.9064 13.75629271442493
Epoch (UTC): 19 April 2018 10:27:14
Eccentricity: 0.0029921
inclination: 82.9418°
perigee height: 957 km
apogee height: 1001 km
right ascension of ascending node: 226.8829°
argument of perigee: 145.4156°
revolutions per day: 13.75629271
mean anomaly at epoch: 280.9064°
orbit number at epoch: 44249

The dashed part of the orbit path shows where the satellite is in the earth's shadow,  

DLR